{"data":{"norad_id":53419,"intl_designator":"2022-097AH","name":"STARLINK-4476","alt_names":[],"object_type":"PAYLOAD","status":"ACTIVE","operator":null,"country":"US","launch_date":"2022-08-10","launch_site_code":"AFETR","launch_vehicle":null,"mission":null,"orbit_class":"UNKNOWN","rcs_meters":null,"size_class":null,"mass_kg":null,"dimensions":null,"purposes":["comms"],"wikipedia_slug":null,"has_3d_model":false,"image_url":null,"decayed_at":null,"tle_current":{"epoch":"2026-05-25T02:59:52.445184Z","epoch_age_seconds":74787,"freshness":"FRESH","line1":"1 53419U 22097AH  26145.12491256  .00003771  00000+0  25503-3 0  9995","line2":"2 53419  53.2133 130.9862 0001148  78.3377 281.7744 15.08815757210169","mean_motion":15.08815757,"eccentricity":0.0001148,"inclination_deg":53.2133,"raan_deg":130.9862,"arg_perigee_deg":78.3377,"mean_anomaly_deg":281.7744,"bstar":0.00025503,"rev_number":21016,"period_min":95.439088127179,"perigee_km":539.02330993315,"apogee_km":540.61167228431,"semimajor_km":6917.9544911087,"source":"CELESTRAK","updated_at":"2026-05-25T13:38:17.402940Z"}}}